Year,Month,Day,Hour,Minute,Value (Times are PST for temperature in C)
2015,07,05,00,00,16.50
2015,07,05,00,01,16.50
2015,07,05,00,02,16.50
2015,07,05,00,03,16.50
2015,07,05,00,04,16.50
2015,07,05,00,05,16.50
2015,07,05,00,06,16.60
2015,07,05,00,07,16.60
2015,07,05,00,08,16.60
2015,07,05,00,09,16.60
2015,07,05,00,10,16.60
2015,07,05,00,11,16.60
2015,07,05,00,12,16.60
2015,07,05,00,13,16.60
2015,07,05,00,14,16.60
2015,07,05,00,15,16.60
2015,07,05,00,16,16.70
2015,07,05,00,17,16.70
2015,07,05,00,18,16.70
2015,07,05,00,19,16.70
2015,07,05,00,20,16.60
2015,07,05,00,21,16.60
2015,07,05,00,22,16.60
2015,07,05,00,23,16.60
2015,07,05,00,24,16.60
2015,07,05,00,25,16.60
2015,07,05,00,26,16.60
2015,07,05,00,27,16.60
2015,07,05,00,28,16.60
2015,07,05,00,29,16.60
2015,07,05,00,30,16.60
2015,07,05,00,31,16.60
2015,07,05,00,32,16.70
2015,07,05,00,33,16.70
2015,07,05,00,34,16.70
2015,07,05,00,35,16.70
2015,07,05,00,36,16.70
2015,07,05,00,37,16.70
2015,07,05,00,38,16.70
2015,07,05,00,39,16.70
2015,07,05,00,40,16.70
2015,07,05,00,41,16.70
2015,07,05,00,42,16.70
2015,07,05,00,43,16.70
2015,07,05,00,44,16.70
2015,07,05,00,45,16.70
2015,07,05,00,46,16.70
2015,07,05,00,47,16.70
2015,07,05,00,48,16.70
2015,07,05,00,49,16.70
2015,07,05,00,50,16.70
2015,07,05,00,51,16.70
2015,07,05,00,52,16.70
2015,07,05,00,53,16.70
2015,07,05,00,54,16.70
2015,07,05,00,55,16.70
2015,07,05,00,56,16.70
2015,07,05,00,57,16.70
2015,07,05,00,58,16.70
2015,07,05,00,59,16.70
2015,07,05,01,00,16.70
2015,07,05,01,01,16.70
2015,07,05,01,02,16.70
2015,07,05,01,03,16.70
2015,07,05,01,04,16.70
2015,07,05,01,05,16.70
2015,07,05,01,06,16.70
2015,07,05,01,07,16.70
2015,07,05,01,08,16.70
2015,07,05,01,09,16.70
2015,07,05,01,10,16.70
2015,07,05,01,11,16.70
2015,07,05,01,12,16.70
2015,07,05,01,13,16.70
2015,07,05,01,14,16.70
2015,07,05,01,15,16.60
2015,07,05,01,16,16.60
2015,07,05,01,17,16.60
2015,07,05,01,18,16.60
2015,07,05,01,19,16.60
2015,07,05,01,20,16.60
2015,07,05,01,21,16.60
2015,07,05,01,22,16.60
2015,07,05,01,23,16.50
2015,07,05,01,24,16.50
2015,07,05,01,25,16.50
2015,07,05,01,26,16.50
2015,07,05,01,27,16.40
2015,07,05,01,28,16.40
2015,07,05,01,29,16.40
2015,07,05,01,30,16.40
2015,07,05,01,31,16.40
2015,07,05,01,32,16.40
2015,07,05,01,33,16.40
2015,07,05,01,34,16.40
2015,07,05,01,35,16.40
2015,07,05,01,36,16.40
2015,07,05,01,37,16.40
2015,07,05,01,38,16.40
2015,07,05,01,39,16.30
2015,07,05,01,40,16.30
2015,07,05,01,41,16.30
2015,07,05,01,42,16.40
2015,07,05,01,43,16.40
2015,07,05,01,44,16.40
2015,07,05,01,45,16.40
2015,07,05,01,46,16.40
2015,07,05,01,47,16.40
2015,07,05,01,48,16.40
2015,07,05,01,49,16.40
2015,07,05,01,50,16.40
2015,07,05,01,51,16.40
2015,07,05,01,52,16.40
2015,07,05,01,53,16.30
2015,07,05,01,54,16.30
2015,07,05,01,55,16.30
2015,07,05,01,56,16.30
2015,07,05,01,57,16.30
2015,07,05,01,58,16.30
2015,07,05,01,59,16.30
2015,07,05,02,00,16.30
2015,07,05,02,01,16.30
2015,07,05,02,02,16.30
2015,07,05,02,03,16.30
2015,07,05,02,04,16.30
2015,07,05,02,05,16.30
2015,07,05,02,06,16.30
2015,07,05,02,07,16.30
2015,07,05,02,08,16.30
2015,07,05,02,09,16.30
2015,07,05,02,10,16.30
2015,07,05,02,11,16.30
2015,07,05,02,12,16.30
2015,07,05,02,13,16.30
2015,07,05,02,14,16.30
2015,07,05,02,15,16.30
2015,07,05,02,16,16.30
2015,07,05,02,17,16.30
2015,07,05,02,18,16.30
2015,07,05,02,19,16.30
2015,07,05,02,20,16.40
2015,07,05,02,21,16.40
2015,07,05,02,22,16.40
2015,07,05,02,23,16.40
2015,07,05,02,24,16.40
2015,07,05,02,25,16.40
2015,07,05,02,26,16.50
2015,07,05,02,27,16.50
2015,07,05,02,28,16.60
2015,07,05,02,29,16.60
2015,07,05,02,30,16.60
2015,07,05,02,31,16.60
2015,07,05,02,32,16.60
2015,07,05,02,33,16.60
2015,07,05,02,34,16.60
2015,07,05,02,35,16.70
2015,07,05,02,36,16.70
2015,07,05,02,37,16.70
2015,07,05,02,38,16.80
2015,07,05,02,39,16.80
2015,07,05,02,40,16.80
2015,07,05,02,41,16.80
2015,07,05,02,42,16.80
2015,07,05,02,43,16.80
2015,07,05,02,44,16.80
2015,07,05,02,45,16.80
2015,07,05,02,46,16.80
2015,07,05,02,47,16.80
2015,07,05,02,48,16.80
2015,07,05,02,49,16.80
2015,07,05,02,50,16.90
2015,07,05,02,51,16.80
2015,07,05,02,52,16.80
2015,07,05,02,53,16.80
2015,07,05,02,54,16.80
2015,07,05,02,55,16.80
2015,07,05,02,56,16.80
2015,07,05,02,57,16.80
2015,07,05,02,58,16.80
2015,07,05,02,59,16.80
2015,07,05,03,00,16.80
2015,07,05,03,01,16.80
2015,07,05,03,02,16.80
2015,07,05,03,06,16.70
2015,07,05,03,07,16.70
2015,07,05,03,08,16.70
2015,07,05,03,09,16.70
2015,07,05,03,10,16.70
2015,07,05,03,11,16.70
2015,07,05,03,12,16.70
2015,07,05,03,13,16.70
2015,07,05,03,14,16.70
2015,07,05,03,15,16.70
2015,07,05,03,16,16.70
2015,07,05,03,17,16.70
2015,07,05,03,18,16.70
2015,07,05,03,19,16.70
2015,07,05,03,20,16.70
2015,07,05,03,21,16.70
2015,07,05,03,22,16.70
2015,07,05,03,23,16.70
2015,07,05,03,24,16.70
2015,07,05,03,25,16.70
2015,07,05,03,26,16.60
2015,07,05,03,27,16.60
2015,07,05,03,28,16.60
2015,07,05,03,29,16.60
2015,07,05,03,30,16.60
2015,07,05,03,31,16.60
2015,07,05,03,32,16.60
2015,07,05,03,33,16.50
2015,07,05,03,34,16.60
2015,07,05,03,35,16.60
2015,07,05,03,36,16.60
2015,07,05,03,37,16.60
2015,07,05,03,38,16.70
2015,07,05,03,39,16.70
2015,07,05,03,40,16.70
2015,07,05,03,41,16.70
2015,07,05,03,42,16.70
2015,07,05,03,43,16.70
2015,07,05,03,44,16.60
2015,07,05,03,45,16.60
2015,07,05,03,46,16.60
2015,07,05,03,47,16.60
2015,07,05,03,48,16.60
2015,07,05,03,49,16.60
2015,07,05,03,50,16.50
2015,07,05,03,51,16.50
2015,07,05,03,52,16.50
2015,07,05,03,53,16.40
2015,07,05,03,54,16.40
2015,07,05,03,55,16.40
2015,07,05,03,56,16.40
2015,07,05,03,57,16.30
2015,07,05,03,58,16.30
2015,07,05,03,59,16.30
2015,07,05,04,00,16.30
2015,07,05,04,01,16.20
2015,07,05,04,02,16.20
2015,07,05,04,03,16.20
2015,07,05,04,04,16.20
2015,07,05,04,05,16.20
2015,07,05,04,06,16.10
2015,07,05,04,07,16.10
2015,07,05,04,08,16.10
2015,07,05,04,09,16.10
2015,07,05,04,10,16.10
2015,07,05,04,11,16.10
2015,07,05,04,12,16.10
2015,07,05,04,13,16.10
2015,07,05,04,14,16.10
2015,07,05,04,15,16.20
2015,07,05,04,16,16.20
2015,07,05,04,17,16.20
2015,07,05,04,18,16.20
2015,07,05,04,19,16.20
2015,07,05,04,20,16.20
2015,07,05,04,21,16.20
2015,07,05,04,22,16.20
2015,07,05,04,23,16.10
2015,07,05,04,24,16.10
2015,07,05,04,25,16.10
2015,07,05,04,26,16.10
2015,07,05,04,27,16.10
2015,07,05,04,28,16.10
2015,07,05,04,29,16.10
2015,07,05,04,30,16.10
2015,07,05,04,31,16.00
2015,07,05,04,32,16.00
2015,07,05,04,33,16.00
2015,07,05,04,34,16.00
2015,07,05,04,35,16.00
2015,07,05,04,36,16.00
2015,07,05,04,37,16.00
2015,07,05,04,38,15.90
2015,07,05,04,39,15.90
2015,07,05,04,40,15.90
2015,07,05,04,41,15.90
2015,07,05,04,42,15.90
2015,07,05,04,43,15.90
2015,07,05,04,44,15.90
2015,07,05,04,45,15.90
2015,07,05,04,46,16.00
2015,07,05,04,47,16.00
2015,07,05,04,48,16.00
2015,07,05,04,49,16.00
2015,07,05,04,50,16.00
2015,07,05,04,51,16.00
2015,07,05,04,52,16.00
2015,07,05,04,53,16.00
2015,07,05,04,54,16.00
2015,07,05,04,55,16.00
2015,07,05,04,56,16.00
2015,07,05,04,57,15.90
2015,07,05,04,58,15.90
2015,07,05,04,59,15.90
2015,07,05,05,00,15.90
2015,07,05,05,01,15.80
2015,07,05,05,02,15.80
2015,07,05,05,03,15.80
2015,07,05,05,04,15.80
2015,07,05,05,05,15.80
2015,07,05,05,06,15.80
2015,07,05,05,07,15.80
2015,07,05,05,08,15.80
2015,07,05,05,09,15.80
2015,07,05,05,10,15.80
2015,07,05,05,11,15.70
2015,07,05,05,12,15.70
2015,07,05,05,13,15.70
2015,07,05,05,14,15.70
2015,07,05,05,15,15.70
2015,07,05,05,16,15.70
2015,07,05,05,17,15.70
2015,07,05,05,18,15.70
2015,07,05,05,19,15.70
2015,07,05,05,20,15.70
2015,07,05,05,21,15.70
2015,07,05,05,22,15.70
2015,07,05,05,23,15.70
2015,07,05,05,24,15.70
2015,07,05,05,25,15.70
2015,07,05,05,26,15.70
2015,07,05,05,27,15.70
2015,07,05,05,28,15.70
2015,07,05,05,29,15.70
2015,07,05,05,30,15.60
2015,07,05,05,31,15.60
2015,07,05,05,32,15.60
2015,07,05,05,33,15.60
2015,07,05,05,34,15.50
2015,07,05,05,35,15.50
2015,07,05,05,36,15.50
2015,07,05,05,37,15.50
2015,07,05,05,38,15.40
2015,07,05,05,39,15.40
2015,07,05,05,40,15.40
2015,07,05,05,41,15.40
2015,07,05,05,42,15.40
2015,07,05,05,43,15.40
2015,07,05,05,44,15.40
2015,07,05,05,45,15.40
2015,07,05,05,46,15.40
2015,07,05,05,47,15.40
2015,07,05,05,48,15.40
2015,07,05,05,49,15.50
2015,07,05,05,50,15.50
2015,07,05,05,51,15.50
2015,07,05,05,52,15.50
2015,07,05,05,53,15.60
2015,07,05,05,54,15.60
2015,07,05,05,55,15.60
2015,07,05,05,56,15.60
2015,07,05,05,57,15.60
2015,07,05,05,58,15.60
2015,07,05,05,59,15.60
2015,07,05,06,00,15.70
2015,07,05,06,01,15.80
2015,07,05,06,02,15.80
2015,07,05,06,03,15.90
2015,07,05,06,04,15.90
2015,07,05,06,05,15.90
2015,07,05,06,06,15.90
2015,07,05,06,07,15.90
2015,07,05,06,08,15.90
2015,07,05,06,09,15.90
2015,07,05,06,10,15.90
2015,07,05,06,11,15.90
2015,07,05,06,12,15.90
2015,07,05,06,13,15.90
2015,07,05,06,14,15.90
2015,07,05,06,15,16.00
2015,07,05,06,16,16.00
2015,07,05,06,17,16.10
2015,07,05,06,18,16.20
2015,07,05,06,19,16.20
2015,07,05,06,20,16.20
2015,07,05,06,21,16.20
2015,07,05,06,22,16.20
2015,07,05,06,23,16.20
2015,07,05,06,24,16.20
2015,07,05,06,25,16.10
2015,07,05,06,26,16.10
2015,07,05,06,27,16.10
2015,07,05,06,28,16.00
2015,07,05,06,29,16.00
2015,07,05,06,30,16.00
2015,07,05,06,31,16.00
2015,07,05,06,32,16.00
2015,07,05,06,33,16.00
2015,07,05,06,34,16.00
2015,07,05,06,35,16.00
2015,07,05,06,36,16.00
2015,07,05,06,37,16.10
2015,07,05,06,38,16.10
2015,07,05,06,39,16.10
2015,07,05,06,40,16.10
2015,07,05,06,41,16.10
2015,07,05,06,42,16.20
2015,07,05,06,43,16.20
2015,07,05,06,44,16.20
2015,07,05,06,45,16.20
2015,07,05,06,46,16.20
2015,07,05,06,47,16.20
2015,07,05,06,48,16.20
2015,07,05,06,49,16.20
2015,07,05,06,50,16.20
2015,07,05,06,51,16.20
2015,07,05,06,52,16.20
2015,07,05,06,53,16.30
2015,07,05,06,54,16.30
2015,07,05,06,55,16.30
2015,07,05,06,56,16.30
2015,07,05,06,57,16.30
2015,07,05,06,58,16.30
2015,07,05,06,59,16.30
2015,07,05,07,00,16.30
2015,07,05,07,01,16.30
2015,07,05,07,02,16.30
2015,07,05,07,03,16.30
2015,07,05,07,04,16.40
2015,07,05,07,05,16.40
2015,07,05,07,06,16.40
2015,07,05,07,07,16.50
2015,07,05,07,08,16.50
2015,07,05,07,09,16.60
2015,07,05,07,10,16.60
2015,07,05,07,11,16.60
2015,07,05,07,12,16.60
2015,07,05,07,13,16.60
2015,07,05,07,14,16.70
2015,07,05,07,15,16.70
2015,07,05,07,16,16.70
2015,07,05,07,17,16.80
2015,07,05,07,18,16.80
2015,07,05,07,19,16.90
2015,07,05,07,20,16.90
2015,07,05,07,21,17.00
2015,07,05,07,22,17.20
2015,07,05,07,23,17.30
2015,07,05,07,24,17.40
2015,07,05,07,25,17.50
2015,07,05,07,26,17.70
2015,07,05,07,27,17.70
2015,07,05,07,28,17.80
2015,07,05,07,29,17.90
2015,07,05,07,30,18.00
2015,07,05,07,31,18.10
2015,07,05,07,32,18.10
2015,07,05,07,33,18.20
2015,07,05,07,34,18.30
2015,07,05,07,35,18.40
2015,07,05,07,36,18.40
2015,07,05,07,37,18.50
2015,07,05,07,38,18.60
2015,07,05,07,39,18.70
2015,07,05,07,40,18.90
2015,07,05,07,41,19.00
2015,07,05,07,42,19.10
2015,07,05,07,43,19.20
2015,07,05,07,44,19.30
2015,07,05,07,45,19.30
2015,07,05,07,46,19.40
2015,07,05,07,47,19.40
2015,07,05,07,48,19.50
2015,07,05,07,49,19.60
2015,07,05,07,50,19.60
2015,07,05,07,51,19.60
2015,07,05,07,52,19.70
2015,07,05,07,53,19.70
2015,07,05,07,54,19.70
2015,07,05,07,55,19.70
2015,07,05,07,56,19.70
2015,07,05,07,57,19.80
2015,07,05,07,58,19.80
2015,07,05,07,59,19.80
2015,07,05,08,00,19.80
2015,07,05,08,01,19.90
2015,07,05,08,02,19.90
2015,07,05,08,03,19.90
2015,07,05,08,04,20.00
2015,07,05,08,05,20.00
2015,07,05,08,06,20.00
2015,07,05,08,07,20.00
2015,07,05,08,08,20.00
2015,07,05,08,09,20.00
2015,07,05,08,10,20.00
2015,07,05,08,11,20.00
2015,07,05,08,12,20.00
2015,07,05,08,13,20.00
2015,07,05,08,14,20.10
2015,07,05,08,15,20.10
2015,07,05,08,16,20.10
2015,07,05,08,17,20.10
2015,07,05,08,18,20.10
2015,07,05,08,19,20.10
2015,07,05,08,20,20.10
2015,07,05,08,21,20.10
2015,07,05,08,22,20.10
2015,07,05,08,23,20.10
2015,07,05,08,24,20.10
2015,07,05,08,25,20.10
2015,07,05,08,26,20.10
2015,07,05,08,27,20.10
2015,07,05,08,28,20.10
2015,07,05,08,29,20.10
2015,07,05,08,30,20.10
2015,07,05,08,31,20.10
2015,07,05,08,32,20.20
2015,07,05,08,33,20.20
2015,07,05,08,34,20.20
2015,07,05,08,35,20.20
2015,07,05,08,36,20.20
2015,07,05,08,37,20.20
2015,07,05,08,38,20.20
2015,07,05,08,39,20.20
2015,07,05,08,40,20.20
2015,07,05,08,41,20.20
2015,07,05,08,42,20.30
2015,07,05,08,43,20.30
2015,07,05,08,44,20.30
2015,07,05,08,45,20.30
2015,07,05,08,46,20.30
2015,07,05,08,47,20.30
2015,07,05,08,48,20.30
2015,07,05,08,49,20.30
2015,07,05,08,50,20.40
2015,07,05,08,51,20.40
2015,07,05,08,52,20.40
2015,07,05,08,53,20.40
2015,07,05,08,54,20.40
2015,07,05,08,55,20.40
2015,07,05,08,56,20.40
2015,07,05,08,57,20.50
2015,07,05,08,58,20.50
2015,07,05,08,59,20.60
2015,07,05,09,00,20.60
2015,07,05,09,01,20.60
2015,07,05,09,02,20.70
2015,07,05,09,03,20.70
2015,07,05,09,04,20.70
2015,07,05,09,05,20.70
2015,07,05,09,06,20.80
2015,07,05,09,07,20.80
2015,07,05,09,08,20.80
2015,07,05,09,09,20.80
2015,07,05,09,10,20.80
2015,07,05,09,11,20.90
2015,07,05,09,12,20.90
2015,07,05,09,13,21.00
2015,07,05,09,14,21.00
2015,07,05,09,15,21.10
2015,07,05,09,16,21.10
2015,07,05,09,17,21.10
2015,07,05,09,18,21.10
2015,07,05,09,19,21.10
2015,07,05,09,20,21.00
2015,07,05,09,21,21.00
2015,07,05,09,22,21.00
2015,07,05,09,23,21.00
2015,07,05,09,24,21.00
2015,07,05,09,25,21.00
2015,07,05,09,26,21.00
2015,07,05,09,27,21.00
2015,07,05,09,28,21.00
2015,07,05,09,29,21.00
2015,07,05,09,30,21.00
2015,07,05,09,31,21.00
2015,07,05,09,32,21.00
2015,07,05,09,33,21.10
2015,07,05,09,34,21.10
2015,07,05,09,35,21.10
2015,07,05,09,36,21.10
2015,07,05,09,37,21.10
2015,07,05,09,38,21.10
2015,07,05,09,39,21.10
2015,07,05,09,40,21.20
2015,07,05,09,41,21.20
2015,07,05,09,42,21.20
2015,07,05,09,43,21.30
2015,07,05,09,44,21.30
2015,07,05,09,45,21.30
2015,07,05,09,46,21.30
2015,07,05,09,47,21.30
2015,07,05,09,48,21.30
2015,07,05,09,49,21.30
2015,07,05,09,50,21.30
2015,07,05,09,51,21.30
2015,07,05,09,52,21.40
2015,07,05,09,53,21.40
2015,07,05,09,54,21.40
2015,07,05,09,55,21.40
2015,07,05,09,56,21.40
2015,07,05,09,57,21.40
2015,07,05,09,58,21.40
2015,07,05,09,59,21.40
2015,07,05,10,00,21.40
2015,07,05,10,01,21.40
2015,07,05,10,02,21.50
2015,07,05,10,03,21.50
2015,07,05,10,04,21.60
2015,07,05,10,05,21.60
2015,07,05,10,06,21.70
2015,07,05,10,07,21.70
2015,07,05,10,08,21.80
2015,07,05,10,09,21.80
2015,07,05,10,10,21.90
2015,07,05,10,11,21.90
2015,07,05,10,12,22.00
2015,07,05,10,13,22.00
2015,07,05,10,14,22.10
2015,07,05,10,15,22.10
2015,07,05,10,16,22.10
2015,07,05,10,17,22.10
2015,07,05,10,18,22.20
2015,07,05,10,19,22.20
2015,07,05,10,20,22.20
2015,07,05,10,21,22.20
2015,07,05,10,22,22.20
2015,07,05,10,23,22.20
2015,07,05,10,24,22.20
2015,07,05,10,25,22.30
2015,07,05,10,26,22.30
2015,07,05,10,27,22.30
2015,07,05,10,28,22.30
2015,07,05,10,29,22.30
2015,07,05,10,30,22.30
2015,07,05,10,31,22.30
2015,07,05,10,32,22.30
2015,07,05,10,33,22.30
2015,07,05,10,34,22.30
2015,07,05,10,35,22.30
2015,07,05,10,36,22.40
2015,07,05,10,37,22.40
2015,07,05,10,38,22.40
2015,07,05,10,39,22.40
2015,07,05,10,40,22.40
2015,07,05,10,41,22.50
2015,07,05,10,42,22.50
2015,07,05,10,43,22.50
2015,07,05,10,44,22.60
2015,07,05,10,45,22.60
2015,07,05,10,46,22.60
2015,07,05,10,47,22.60
2015,07,05,10,48,22.70
2015,07,05,10,49,22.70
2015,07,05,10,50,22.70
2015,07,05,10,51,22.70
2015,07,05,10,52,22.70
2015,07,05,10,53,22.70
2015,07,05,10,54,22.80
2015,07,05,10,55,22.80
2015,07,05,10,56,22.80
2015,07,05,10,57,22.80
2015,07,05,10,58,22.70
2015,07,05,10,59,22.70
2015,07,05,11,00,22.70
2015,07,05,11,01,22.70
2015,07,05,11,02,22.70
2015,07,05,11,03,22.70
2015,07,05,11,04,22.80
2015,07,05,11,05,22.80
2015,07,05,11,06,22.80
2015,07,05,11,07,22.90
2015,07,05,11,08,22.90
2015,07,05,11,09,22.90
2015,07,05,11,10,23.00
2015,07,05,11,11,23.10
2015,07,05,11,12,23.10
2015,07,05,11,13,23.20
2015,07,05,11,14,23.20
2015,07,05,11,15,23.30
2015,07,05,11,16,23.30
2015,07,05,11,17,23.30
2015,07,05,11,18,23.40
2015,07,05,11,19,23.40
2015,07,05,11,20,23.50
2015,07,05,11,21,23.50
2015,07,05,11,22,23.60
2015,07,05,11,23,23.60
2015,07,05,11,24,23.60
2015,07,05,11,25,23.60
2015,07,05,11,26,23.70
2015,07,05,11,27,23.70
2015,07,05,11,28,23.70
2015,07,05,11,29,23.70
2015,07,05,11,30,23.80
2015,07,05,11,31,23.80
2015,07,05,11,32,23.80
2015,07,05,11,33,23.80
2015,07,05,11,34,23.80
2015,07,05,11,35,23.90
2015,07,05,11,36,23.90
2015,07,05,11,37,23.90
2015,07,05,11,38,24.00
2015,07,05,11,39,24.00
2015,07,05,11,40,24.10
2015,07,05,11,41,24.10
2015,07,05,11,42,24.10
2015,07,05,11,43,24.10
2015,07,05,11,44,24.20
2015,07,05,11,45,24.20
2015,07,05,11,46,24.20
2015,07,05,11,47,24.20
2015,07,05,11,48,24.30
2015,07,05,11,49,24.30
2015,07,05,11,50,24.30
2015,07,05,11,51,24.40
2015,07,05,11,52,24.40
2015,07,05,11,53,24.40
2015,07,05,11,54,24.50
2015,07,05,11,55,24.50
2015,07,05,11,56,24.50
2015,07,05,11,57,24.50
2015,07,05,11,58,24.60
2015,07,05,11,59,24.60
2015,07,05,12,00,24.60
2015,07,05,12,01,24.60
2015,07,05,12,02,24.70
2015,07,05,12,03,24.70
2015,07,05,12,04,24.70
2015,07,05,12,05,24.80
2015,07,05,12,06,24.80
2015,07,05,12,07,24.90
2015,07,05,12,08,25.00
2015,07,05,12,09,25.00
2015,07,05,12,10,25.10
2015,07,05,12,11,25.10
2015,07,05,12,12,25.20
2015,07,05,12,13,25.20
2015,07,05,12,14,25.30
2015,07,05,12,15,25.30
2015,07,05,12,16,25.40
2015,07,05,12,17,25.40
2015,07,05,12,18,25.40
2015,07,05,12,19,25.50
2015,07,05,12,20,25.50
2015,07,05,12,21,25.60
2015,07,05,12,22,25.60
2015,07,05,12,23,25.60
2015,07,05,12,24,25.60
2015,07,05,12,25,25.60
2015,07,05,12,26,25.60
2015,07,05,12,27,25.60
2015,07,05,12,28,25.60
2015,07,05,12,29,25.60
2015,07,05,12,30,25.60
2015,07,05,12,31,25.60
2015,07,05,12,32,25.60
2015,07,05,12,33,25.60
2015,07,05,12,34,25.60
2015,07,05,12,35,25.60
2015,07,05,12,36,25.60
2015,07,05,12,37,25.60
2015,07,05,12,38,25.60
2015,07,05,12,39,25.60
2015,07,05,12,40,25.60
2015,07,05,12,41,25.60
2015,07,05,12,42,25.60
2015,07,05,12,43,25.60
2015,07,05,12,44,25.60
2015,07,05,12,45,25.70
2015,07,05,12,46,25.70
2015,07,05,12,47,25.70
2015,07,05,12,48,25.70
2015,07,05,12,49,25.80
2015,07,05,12,50,25.80
2015,07,05,12,51,25.80
2015,07,05,12,52,25.90
2015,07,05,12,53,25.90
2015,07,05,12,54,26.00
2015,07,05,12,55,26.10
2015,07,05,12,56,26.10
2015,07,05,12,57,26.10
2015,07,05,12,58,26.20
2015,07,05,12,59,26.20
2015,07,05,13,00,26.20
2015,07,05,13,01,26.30
2015,07,05,13,02,26.30
2015,07,05,13,03,26.30
2015,07,05,13,04,26.30
2015,07,05,13,05,26.30
2015,07,05,13,06,26.30
2015,07,05,13,07,26.40
2015,07,05,13,08,26.40
2015,07,05,13,09,26.40
2015,07,05,13,10,26.50
2015,07,05,13,11,26.50
2015,07,05,13,12,26.60
2015,07,05,13,13,26.60
2015,07,05,13,14,26.70
2015,07,05,13,15,26.70
2015,07,05,13,16,26.70
2015,07,05,13,17,26.70
2015,07,05,13,18,26.80
2015,07,05,13,19,26.80
2015,07,05,13,20,26.80
2015,07,05,13,21,26.90
2015,07,05,13,22,26.90
2015,07,05,13,23,26.90
2015,07,05,13,24,27.00
2015,07,05,13,25,27.00
2015,07,05,13,26,27.00
2015,07,05,13,27,27.10
2015,07,05,13,28,27.10
2015,07,05,13,29,27.20
2015,07,05,13,30,27.20
2015,07,05,13,31,27.30
2015,07,05,13,32,27.30
2015,07,05,13,33,27.40
2015,07,05,13,34,27.40
2015,07,05,13,35,27.40
2015,07,05,13,36,27.50
2015,07,05,13,37,27.60
2015,07,05,13,38,27.60
2015,07,05,13,39,27.70
2015,07,05,13,40,27.70
2015,07,05,13,41,27.70
2015,07,05,13,42,27.80
2015,07,05,13,43,27.80
2015,07,05,13,44,27.80
2015,07,05,13,45,27.90
2015,07,05,13,46,27.90
2015,07,05,13,47,28.00
2015,07,05,13,48,28.10
2015,07,05,13,49,28.10
2015,07,05,13,50,28.20
2015,07,05,13,51,28.30
2015,07,05,13,52,28.30
2015,07,05,13,53,28.40
2015,07,05,13,54,28.40
2015,07,05,13,55,28.40
2015,07,05,13,56,28.40
2015,07,05,13,57,28.50
2015,07,05,13,58,28.40
2015,07,05,13,59,28.40
2015,07,05,14,00,28.30
2015,07,05,14,01,28.40
2015,07,05,14,02,28.40
2015,07,05,14,03,28.40
2015,07,05,14,04,28.50
2015,07,05,14,05,28.50
2015,07,05,14,06,28.50
2015,07,05,14,07,28.50
2015,07,05,14,08,28.50
2015,07,05,14,09,28.60
2015,07,05,14,10,28.60
2015,07,05,14,11,28.70
2015,07,05,14,12,28.70
2015,07,05,14,13,28.60
2015,07,05,14,14,28.60
2015,07,05,14,15,28.60
2015,07,05,14,16,28.60
2015,07,05,14,17,28.70
2015,07,05,14,18,28.70
2015,07,05,14,19,28.70
2015,07,05,14,20,28.70
2015,07,05,14,21,28.80
2015,07,05,14,22,28.80
2015,07,05,14,23,28.80
2015,07,05,14,24,28.90
2015,07,05,14,25,29.00
2015,07,05,14,26,29.10
2015,07,05,14,27,29.10
2015,07,05,14,28,29.20
2015,07,05,14,29,29.20
2015,07,05,14,30,29.20
2015,07,05,14,31,29.30
2015,07,05,14,32,29.30
2015,07,05,14,33,29.30
2015,07,05,14,34,29.30
2015,07,05,14,35,29.40
2015,07,05,14,36,29.40
2015,07,05,14,37,29.40
2015,07,05,14,38,29.40
2015,07,05,14,39,29.50
2015,07,05,14,40,29.50
2015,07,05,14,41,29.50
2015,07,05,14,42,29.50
2015,07,05,14,43,29.50
2015,07,05,14,44,29.40
2015,07,05,14,45,29.40
2015,07,05,14,46,29.40
2015,07,05,14,47,29.50
2015,07,05,14,48,29.50
2015,07,05,14,49,29.50
2015,07,05,14,50,29.50
2015,07,05,14,51,29.60
2015,07,05,14,52,29.60
2015,07,05,14,53,29.60
2015,07,05,14,54,29.70
2015,07,05,14,55,29.70
2015,07,05,14,56,29.70
2015,07,05,14,57,29.70
2015,07,05,14,58,29.70
2015,07,05,14,59,29.60
2015,07,05,15,00,29.60
2015,07,05,15,01,29.60
2015,07,05,15,02,29.70
2015,07,05,15,03,29.70
2015,07,05,15,04,29.70
2015,07,05,15,05,29.70
2015,07,05,15,06,29.80
2015,07,05,15,07,29.80
2015,07,05,15,08,29.90
2015,07,05,15,09,29.90
2015,07,05,15,10,29.90
2015,07,05,15,11,29.90
2015,07,05,15,12,29.90
2015,07,05,15,13,30.00
2015,07,05,15,14,30.00
2015,07,05,15,15,30.00
2015,07,05,15,16,30.00
2015,07,05,15,17,30.00
2015,07,05,15,18,30.10
2015,07,05,15,19,30.10
2015,07,05,15,20,30.10
2015,07,05,15,21,30.10
2015,07,05,15,22,30.10
2015,07,05,15,23,30.20
2015,07,05,15,24,30.20
2015,07,05,15,25,30.20
2015,07,05,15,26,30.20
2015,07,05,15,27,30.20
2015,07,05,15,28,30.20
2015,07,05,15,29,30.20
2015,07,05,15,30,30.20
2015,07,05,15,31,30.20
2015,07,05,15,32,30.20
2015,07,05,15,33,30.30
2015,07,05,15,34,30.40
2015,07,05,15,35,30.50
2015,07,05,15,36,30.60
2015,07,05,15,37,30.60
2015,07,05,15,38,30.70
2015,07,05,15,39,30.70
2015,07,05,15,40,30.80
2015,07,05,15,41,30.80
2015,07,05,15,42,30.90
2015,07,05,15,43,30.90
2015,07,05,15,44,30.90
2015,07,05,15,45,30.90
2015,07,05,15,46,30.90
2015,07,05,15,47,30.90
2015,07,05,15,48,30.90
2015,07,05,15,49,30.90
2015,07,05,15,50,30.90
2015,07,05,15,51,30.90
2015,07,05,15,52,30.80
2015,07,05,15,53,30.80
2015,07,05,15,54,30.80
2015,07,05,15,55,30.80
2015,07,05,15,56,30.80
2015,07,05,15,57,30.80
2015,07,05,15,58,30.80
2015,07,05,15,59,30.80
2015,07,05,16,00,30.80
2015,07,05,16,01,30.80
2015,07,05,16,02,30.80
2015,07,05,16,03,30.80
2015,07,05,16,04,30.80
2015,07,05,16,05,30.80
2015,07,05,16,06,30.80
2015,07,05,16,07,30.80
2015,07,05,16,08,30.80
2015,07,05,16,09,30.80
2015,07,05,16,10,30.80
2015,07,05,16,11,30.80
2015,07,05,16,12,30.80
2015,07,05,16,13,30.80
2015,07,05,16,14,30.90
2015,07,05,16,15,30.90
2015,07,05,16,16,30.90
2015,07,05,16,17,31.00
2015,07,05,16,18,31.00
2015,07,05,16,19,31.00
2015,07,05,16,20,31.10
2015,07,05,16,21,31.10
2015,07,05,16,22,31.10
2015,07,05,16,23,31.20
2015,07,05,16,24,31.20
2015,07,05,16,25,31.20
2015,07,05,16,26,31.20
2015,07,05,16,27,31.20
2015,07,05,16,28,31.20
2015,07,05,16,29,31.20
2015,07,05,16,30,31.20
2015,07,05,16,31,31.20
2015,07,05,16,32,31.20
2015,07,05,16,33,31.20
2015,07,05,16,34,31.20
2015,07,05,16,35,31.20
2015,07,05,16,36,31.30
2015,07,05,16,37,31.30
2015,07,05,16,38,31.30
2015,07,05,16,39,31.30
2015,07,05,16,40,31.30
2015,07,05,16,41,31.30
2015,07,05,16,42,31.30
2015,07,05,16,43,31.30
2015,07,05,16,44,31.30
2015,07,05,16,45,31.20
2015,07,05,16,46,31.20
2015,07,05,16,47,31.20
2015,07,05,16,48,31.20
2015,07,05,16,49,31.20
2015,07,05,16,50,31.20
2015,07,05,16,51,31.20
2015,07,05,16,52,31.20
2015,07,05,16,53,31.20
2015,07,05,16,54,31.30
2015,07,05,16,55,31.30
2015,07,05,16,56,31.30
2015,07,05,16,57,31.30
2015,07,05,16,58,31.30
2015,07,05,16,59,31.20
2015,07,05,17,00,31.20
2015,07,05,17,01,31.30
2015,07,05,17,02,31.30
2015,07,05,17,03,31.30
2015,07,05,17,04,31.30
2015,07,05,17,05,31.30
2015,07,05,17,06,31.30
2015,07,05,17,07,31.30
2015,07,05,17,08,31.30
2015,07,05,17,09,31.30
2015,07,05,17,10,31.30
2015,07,05,17,11,31.30
2015,07,05,17,12,31.30
2015,07,05,17,13,31.30
2015,07,05,17,14,31.30
2015,07,05,17,15,31.30
2015,07,05,17,16,31.30
2015,07,05,17,17,31.20
2015,07,05,17,18,31.20
2015,07,05,17,19,31.10
2015,07,05,17,20,31.10
2015,07,05,17,21,31.10
2015,07,05,17,22,31.00